This is the latest recevied weather packets stored in our database for station/object EB1TR-13. If no packets are shown the sender has not sent any weather packets the latest 10 day(s).
| Time | Temp. | Humidity | Pressure | Rain* | Wind** | Luminosity | Snow |
|---|---|---|---|---|---|---|---|
| 1778075086 | 16.11° C | 77% | 1014 hPa | 0 mm | - | 0 W/m² | - |
| 1778074186 | 16.11° C | 78% | 1015 hPa | 0 mm | - | 0 W/m² | - |
| 1778073286 | 16.11° C | 77% | 1015 hPa | 0 mm | - | 0 W/m² | - |
| 1778072386 | 16.11° C | 77% | 1015 hPa | 0 mm | - | 0 W/m² | - |
| 1778071486 | 16.11° C | 76% | 1015 hPa | 0 mm | - | 0 W/m² | - |
| 1778070586 | 16.11° C | 75% | 1015 hPa | 0 mm | - | 0 W/m² | - |
| 1778069686 | 16.67° C | 74% | 1015 hPa | 0 mm | - | 0 W/m² | - |
| 1778068786 | 16.67° C | 71% | 1015 hPa | 0 mm | - | 0 W/m² | - |
| 1778067886 | 16.67° C | 72% | 1015 hPa | 0 mm | - | 0 W/m² | - |
| 1778066986 | 16.11° C | 73% | 1015 hPa | 0 mm | - | 0 W/m² | - |
| 1778066086 | 16.11° C | 74% | 1015 hPa | 0 mm | - | 0 W/m² | - |
| 1778065186 | 16.11° C | 73% | 1015 hPa | 0 mm | - | 0 W/m² | - |
| 1778064286 | 16.11° C | 72% | 1015 hPa | 0 mm | - | 0 W/m² | - |
| 1778063386 | 15.56° C | 72% | 1015 hPa | 0 mm | - | 0 W/m² | - |
| 1778062486 | 15.56° C | 73% | 1015 hPa | 0 mm | - | 0 W/m² | - |
| 1778061586 | 15.56° C | 74% | 1015 hPa | 0 mm | - | 0 W/m² | - |
| 1778060686 | 15.56° C | 75% | 1015 hPa | 0 mm | - | 0 W/m² | - |
| 1778059786 | 15.56° C | 76% | 1015 hPa | 0 mm | - | 0 W/m² | - |
| 1778058886 | 15° C | 77% | 1015 hPa | 0 mm | - | 0 W/m² | - |
| 1778057986 | 14.44° C | 78% | 1015 hPa | 0 mm | - | 0 W/m² | - |
| 1778057086 | 13.89° C | 80% | 1015 hPa | 0 mm | - | 0 W/m² | - |
| 1778056187 | 13.33° C | 83% | 1015 hPa | 0 mm | - | 0 W/m² | - |
| 1778055286 | 12.78° C | 85% | 1015 hPa | 0 mm | - | 0 W/m² | - |
| 1778054386 | 12.78° C | 86% | 1015 hPa | 0 mm | - | 0 W/m² | - |
| 1778053486 | 12.22° C | 85% | 1015 hPa | 0 mm | - | 0 W/m² | - |
* Rain latest hour (hover to see other rain measurements)
** Current wind speed in m/s (hover to see current wind gust speed)